Location: Caltech
(34.1382°N, 118.1253°W)
Time: 13:33:57
(UTC-07:00)

Iridium 75 - Visible Passes

Search period start: 06 May 2015 00:00
Search period end: 16 May 2015 00:00
Orbit: 776 x 779 km, 86.4° (Epoch: 06 May)

Date Brightness Start Highest point End Pass type
(mag) Time Alt. Az. Time Alt. Az. Time Alt. Az.
06 May 6.4 22:16:17 52° NE 22:16:17 52° NE 22:20:28 10° N visible
06 May 8.7 23:56:43 12° WNW 23:56:43 12° WNW 23:58:15 10° NW visible
07 May 6.9 21:42:28 31° ENE 21:42:28 31° ENE 21:46:31 10° NNE visible
07 May 7.9 23:22:54 23° WNW 23:22:54 23° WNW 23:26:43 10° NNW visible
08 May 7.6 21:08:39 17° E 21:08:39 17° E 21:11:55 10° NE visible
08 May 6.9 22:49:05 44° W 22:49:05 44° W 22:53:55 10° NNW visible
09 May 5.9 22:15:14 84° SW 22:15:22 87° W 22:20:37 10° N visible
10 May 6.2 21:41:21 46° ESE 21:41:54 48° E 21:46:55 10° NNE visible
10 May 8.3 23:21:47 15° W 23:23:00 15° WNW 23:25:56 10° NW visible
11 May 7.1 21:07:28 23° ESE 21:08:31 25° E 21:12:46 10° NNE visible
11 May 7.5 22:47:54 27° WSW 22:49:09 30° W 22:53:39 10° NNW visible
12 May 7.8 20:33:32 11° E 20:35:12 13° E 20:37:35 10° NE visible
12 May 6.5 22:13:57 41° SW 22:15:28 58° W 22:20:37 10° N visible
13 May 5.9 21:40:00 39° SSE 21:41:57 73° E 21:47:10 10° N visible
14 May 6.6 21:06:01 23° SE 21:08:31 37° E 21:13:18 10° NNE visible
14 May 8.2 22:46:27 13° WSW 22:49:25 20° WNW 22:53:08 10° NNW visible
15 May 7.4 20:31:59 11° ESE 20:35:09 19° E 20:38:52 10° NE visible
15 May 7.2 22:12:25 19° SW 22:15:38 38° W 22:20:28 10° NNW visible
